Flag for Germany Weather past 2 weeks in Neustadt am Rübenberge, Lower Saxony, Germany

Now
61 °F

Cool.


Feels Like: 61 °F
Forecast: 51 / 64 °F
Wind: 8 mph from Southwest

Location: Wunstorf Airport

Current Time: Aug 22, 2014 at 8:04:12 PM

Latest Report: Aug 22, 2014 at 7:20 PM


Visibility: 4 mi

Pressure: 29.83 "Hg

Humidity: 72%

Dew point: 52 °F

Location of Neustadt am RübenbergeLocation

Historic Weather in Neustadt am Rübenberge — Graph

°F

Neustadt am Rübenberge temperature yesterday

Maximum temperature yesterday: 64 °F (at 3:20 PM)
Minimum temperature yesterday: 50 °F (at 5:20 AM)
Average temperature yesterday: 57 °F

Past Weeks' High & Low Weather Summary

 TemperatureHumidityPressure
High79 °F (Aug 8, 4:20 PM)100% (Aug 8, 3:20 AM)30.01 "Hg (Aug 8, 3:20 AM)
Low48 °F (Aug 20, 5:20 AM)38% (Aug 11, 5:20 PM)29.59 "Hg (Aug 10, 7:20 PM)
Average61 °F74%29.83 "Hg
* Reported Aug 7 6:20 PM — Aug 22 6:20 PM, Neustadt am Rübenberge, Weather by CustomWeather, © 2014

Note: Actual official high and low records may vary slightly from our data, if they occured in-between our weather recording intervals... More about our weather records

Advertising

Neustadt am Rübenberge weather history for previous 24 hours

 ConditionsComfort  
Time TempWeatherWind HumidityBarometerVisibility
6:20 PM
Aug 22
63 °FMild.9 mph64%29.83 "Hg5 mi
5:20 PM63 °FMild.8 mph64%29.83 "Hg5 mi
4:20 PM64 °FMild.10 mph52%29.83 "Hg5 mi
3:20 PM64 °FMild.9 mph56%29.83 "Hg6 mi
2:20 PM66 °FMild.15 mph49%29.83 "Hg6 mi
1:20 PM64 °FMild.14 mph52%29.86 "Hg6 mi
12:20 PM63 °FPartly sunny.9 mph56%29.86 "HgN/A
11:20 AM61 °FPartly sunny.12 mph59%29.89 "HgN/A
10:20 AM61 °FBroken clouds.12 mph59%29.89 "HgN/A
9:20 AM59 °FPartly sunny.9 mph68%29.89 "HgN/A
8:20 AM55 °FPartly sunny.7 mph77%29.89 "HgN/A
7:20 AM52 °FBroken clouds.8 mph88%29.89 "HgN/A
6:20 AM50 °FPartly cloudy.8 mph88%29.89 "HgN/A
5:20 AM50 °FPassing clouds.7 mph88%29.89 "HgN/A
4:20 AM52 °FCool.7 mph82%29.92 "Hg5 mi
3:20 AM55 °FCool.8 mph72%29.92 "Hg5 mi
2:20 AM54 °FCool.6 mph82%29.92 "Hg4 mi
1:20 AM50 °FCool.6 mph88%29.95 "Hg4 mi
12:20 AM52 °FCool.7 mph82%29.95 "Hg5 mi
11:20 PM
Aug 21
54 °FCool.6 mph77%29.95 "Hg5 mi
10:20 PM57 °FCool.7 mph67%29.95 "Hg4 mi
9:20 PM55 °FCool.6 mph72%29.95 "Hg5 mi
8:20 PM59 °FCool.5 mph63%29.95 "Hg6 mi
Weather by CustomWeather, © 2014

See weather overviewHow to use our weather pages